Regional Weather Roundup
Issued by NWS

Home | Current Version | Previous Version | Graphics & Text | Print | Product List | Glossary On
Versions: 1 2 3 4 5 6 7 8 9 10 11 12 13 14 15 16 17 18 19 20 21 22 23 24 25 26 27 28 29 30 31 32 33 34 35 36 37 38 39 40 41 42 43 44 45 46 47 48 49 50
029
ASUS45 KCYS 040510
RWRWY

WYOMING REGIONAL WEATHER ROUNDUP
NATIONAL WEATHER SERVICE CHEYENNE WY
1000 PM MST SAT DEC 03 2016

NOTE:  "FAIR" INDICATES FEW OR NO CLOUDS BELOW 12,000 FEET
WITH NO SIGNIFICANT WEATHER AND/OR OBSTRUCTIONS TO VISIBILITY.

WYZ001-040600-
YELLOWSTONE NATIONAL PARK

CITY           SKY/WX    TMP DP  RH WIND       PRES   REMARKS
LK YELLOWSTONE   N/A     17  16  95 W8G18     30.05R WCI   7
W YELLOWSTONE  NOT AVBL

$$
WYZ002>013-054>058-071-098>099-040600-
NORTHERN WYOMING

CITY           SKY/WX    TMP DP  RH WIND       PRES   REMARKS
JACKSON        CLOUDY    27  21  80 S14G20    30.10F WCI  15
CODY           FAIR      32  13  45 W12G24    29.98S WCI  23
GREYBULL       FAIR      28  16  60 SE6       30.00R WCI  22
WORLAND        FAIR      22  15  75 CALM      30.00R
SHERIDAN       MOCLDY    34  16  47 W8        29.94S WCI  27
BUFFALO        FAIR      32  10  40 W7        29.93R WCI  26
GILLETTE       CLOUDY    33  18  53 W9        29.93R WCI  25
HULETT         CLOUDY    32  27  80 SW8       29.93R WCI  25
NEWCASTLE      FAIR      28  23  80 NW8       29.95S WCI  20

$$
WYZ014>020-022>026-101>103-040600-
CENTRAL WYOMING

CITY           SKY/WX    TMP DP  RH WIND       PRES   REMARKS
BIG PINEY      FAIR       9   6  88 NW6       30.12R WCI  -1
PINEDALE       FAIR       9   9 100 W9        30.12R WCI  -5
DUBOIS         FAIR      21   9  58 NW16G24   29.98S WCI   7
LANDER         FAIR      19   9  65 SE5       30.02R WCI  12
RIVERTON       FAIR      28  10  46 NW15      30.01R WCI  16
CASPER         FAIR      23  13  65 SW9       29.99S WCI  13
DOUGLAS        FAIR      24  14  65 NW6       29.99R WCI  17

$$
WYZ021-027>030-104>119-040600-
SOUTHERN WYOMING

CITY           SKY/WX    TMP DP  RH WIND       PRES   REMARKS
EVANSTON       CLOUDY    22  13  68 SW12      30.17F WCI  10
FORT BRIDGER   CLOUDY    26  18  73 W16       30.19S WCI  13
ROCK SPRINGS   MOCLDY    21  16  81 W16       30.12F WCI   7
DIXON          CLOUDY    26  17  68 NW6       30.19R WCI  19
RAWLINS        FAIR      19  12  74 SW20G26   30.07S WCI   3
SARATOGA       FAIR      21  18  86 W16       30.09R WCI   7
LARAMIE        FAIR      16   7  67 W10       29.99S WCI   4
CHEYENNE       FAIR      26  10  50 W23       29.98F WCI  11
TORRINGTON     FAIR      32  15  49 W13       29.99S WCI  22
PINE BLUFFS    FAIR      27  12  54 W10       30.01F WCI  17

$$




USA.gov is the U.S. government's official web portal to all federal, state and local government web resources and services.